FW5307 Weather Reports


Display with metric or nautical units.
time (UTC)temp
F
wind
direction
speed
MPH
gust
MPH
rain 1hr
in
rain 24hr
in
rain mn
in
humidity
%
barometer
mb
20190820200522 78 0.0 0.0 0.00 0.00 0.00 90 1020.7
20190820195522 78 0.0 0.0 0.00 0.00 0.00 90 1020.9
20190820194520 77 0.0 1.0 0.00 0.00 0.00 90 1021.1
20190820193523 77 1.0 1.0 0.00 0.00 0.00 89 1021.3
20190820192523 77 0.0 0.0 0.00 0.00 0.00 89 1021.2
20190820191521 77 0.0 1.0 0.00 0.00 0.00 89 1021.1
20190820190521 77 0.0 1.0 0.00 0.00 0.00 88 1021.6
20190820185527 78 1.0 2.0 0.00 0.00 0.00 87 1021.7
20190820184523 80 1.0 2.0 0.00 0.00 0.00 85 1022.0
20190820183524 81 1.0 3.0 0.00 0.00 0.00 85 1021.9
20190820182527 82 1.0 2.0 0.00 0.00 0.00 86 1021.8
20190820181520 82 1.0 2.0 0.00 0.00 0.00 86 1021.6
20190820180520 82 1.0 1.0 0.00 0.00 0.00 85 1021.6
20190820175521 82 0.0 1.0 0.00 0.00 0.00 86 1021.9
20190820174521 81 1.0 4.0 0.00 0.00 0.00 87 1021.7
20190820173524 81 0.0 1.0 0.00 0.00 0.00 86 1021.8
20190820172527 81 0.0 1.0 0.00 0.00 0.00 85 1021.7
20190820171523 81 0.0 2.0 0.00 0.00 0.00 84 1021.9
20190820170522 82 1.0 2.0 0.00 0.00 0.00 83 1021.9
20190820165523 84 0.0 2.0 0.00 0.00 0.00 82 1022.2
20190820164521 85 0.0 1.0 0.00 0.00 0.00 79 1021.8
20190820163521 85 0.0 1.0 0.00 0.00 0.00 78 1021.8
20190820162523 86 0.0 1.0 0.00 0.00 0.00 77 1021.9
20190820161521 86 1.0 2.0 0.00 0.00 0.00 78 1022.1
20190820160521 85 0.0 1.0 0.00 0.00 0.00 80 1022.1
20190820155521 85 0.0 1.0 0.00 0.00 0.00 80 1022.3
20190820154522 85 1.0 1.0 0.00 0.00 0.00 79 1022.4
20190820153522 85 1.0 1.0 0.00 0.00 0.00 79 1022.4
20190820152523 85 1.0 1.0 0.00 0.00 0.00 80 1022.4
20190820151524 85 0.0 1.0 0.00 0.00 0.00 81 1022.4
20190820150522 85 0.0 1.0 0.00 0.00 0.00 82 1022.5
20190820145524 84 1.0 2.0 0.00 0.00 0.00 83 1022.5
20190820144523 84 0.0 2.0 0.00 0.00 0.00 85 1022.6
20190820143523 83 0.0 1.0 0.00 0.00 0.00 87 1022.6
20190820142523 82 0.0 1.0 0.00 0.00 0.00 88 1022.5
20190820141523 82 0.0 1.0 0.00 0.00 0.00 89 1022.4
20190820140522 81 1.0 1.0 0.00 0.00 0.00 90 1022.4
20190820135522 81 0.0 0.0 0.00 0.00 0.00 90 1022.4
20190820134522 81 0.0 0.0 0.00 0.00 0.00 91 1022.4
20190820133522 80 0.0 1.0 0.00 0.00 0.00 91 1022.4
20190820132522 80 0.0 1.0 0.00 0.00 0.00 91 1022.4
20190820131523 79 0.0 1.0 0.00 0.00 0.00 91 1022.4
20190820130524 79 0.0 0.0 0.00 0.00 0.00 92 1022.4
20190820125521 78 0.0 0.0 0.00 0.00 0.00 92 1022.3
20190820124521 78 0.0 0.0 0.00 0.00 0.00 92 1022.2
20190820123521 77 0.0 0.0 0.00 0.00 0.00 92 1022.2
20190820122521 76 1.0 1.0 0.00 0.00 0.00 92 1022.2
20190820121520 76 0.0 1.0 0.00 0.00 0.00 92 1022.1
20190820120521 75 0.0 0.0 0.00 0.00 0.00 92 1021.8
20190820115525 75 0.0 0.0 0.00 0.00 0.00 92 1021.9
20190820114523 75 0.0 0.0 0.00 0.00 0.00 92 1021.6
20190820113523 75 0.0 1.0 0.00 0.00 0.00 92 1021.6
20190820112522 75 1.0 1.0 0.00 0.00 0.00 92 1021.5
20190820111522 75 0.0 0.0 0.00 0.00 0.00 92 1021.3
20190820110523 75 0.0 0.0 0.00 0.00 0.00 92 1021.2
20190820105523 75 0.0 0.0 0.00 0.00 0.00 92 1021.2
20190820104523 75 0.0 0.0 0.00 0.00 0.00 91 1021.1
20190820103524 75 0.0 0.0 0.00 0.00 0.00 91 1020.9
20190820102523 75 0.0 0.0 0.00 0.00 0.00 91 1020.7
20190820101521 75 1.0 1.0 0.00 0.00 0.00 91 1020.6
20190820100523 75 0.0 1.0 0.00 0.00 0.00 91 1020.6
20190820095521 75 0.0 0.0 0.00 0.00 0.00 91 1020.4
20190820094523 75 0.0 0.0 0.00 0.00 0.00 91 1020.5
20190820093523 75 0.0 0.0 0.00 0.00 0.00 91 1020.3
20190820092522 75 0.0 0.0 0.00 0.00 0.00 91 1020.3
20190820091527 75 0.0 0.0 0.00 0.00 0.00 90 1020.2
20190820090523 75 0.0 1.0 0.00 0.00 0.00 90 1020.2
20190820085524 76 0.0 1.0 0.00 0.00 0.00 90 1020.3
20190820084521 76 0.0 1.0 0.00 0.00 0.00 90 1020.4
20190820083523 76 0.0 0.0 0.00 0.00 0.00 90 1020.4
20190820082523 76 0.0 0.0 0.00 0.00 0.00 90 1020.3
20190820081523 76 0.0 0.0 0.00 0.00 0.00 90 1020.4
20190820080522 76 0.0 0.0 0.00 0.00 0.00 90 1020.5
20190820075523 77 0.0 0.0 0.00 0.00 0.00 90 1020.7
20190820074522 77 0.0 1.0 0.00 0.00 0.00 90 1020.9
20190820073524 77 0.0 1.0 0.00 0.00 0.00 90 1021.1
20190820072523 77 0.0 1.0 0.00 0.00 0.00 90 1021.1
20190820071523 77 0.0 0.0 0.00 0.00 0.00 90 1021.0
20190820070522 77 0.0 0.0 0.00 0.00 0.00 90 1021.1
20190820065521 77 0.0 0.0 0.00 0.00 0.00 90 1021.2
20190820064524 78 0.0 0.0 0.00 0.00 0.00 89 1021.3
20190820063523 78 0.0 1.0 0.00 0.00 0.00 89 1021.3
20190820062525 78 1.0 1.0 0.00 0.00 0.00 90 1021.4
20190820061524 78 0.0 1.0 0.00 0.00 0.00 90 1021.6
20190820060521 78 1.0 1.0 0.00 0.00 0.00 90 1021.7